DW8219 Weather Reports


Display with metric or nautical units.
time (UTC)temp
F
wind
direction
speed
MPH
gust
MPH
rain 1hr
in
rain 24hr
in
rain mn
in
humidity
%
barometer
mb
20260904195905 83 301 1.0 12.0 0.00 0.01 0.01 52 1009.3
20260904195404 84 336 3.0 12.0 0.00 0.01 0.01 51 1009.3
20260904194905 84 303 5.0 14.0 0.00 0.01 0.01 51 1009.3
20260904194404 85 252 4.0 12.0 0.00 0.01 0.01 49 1009.4
20260904193904 85 274 5.0 13.0 0.00 0.01 0.01 50 1009.4
20260904193404 85 298 0.0 3.0 0.00 0.01 0.01 50 1009.5
20260904192904 84 257 4.0 14.0 0.00 0.01 0.01 53 1009.5
20260904192404 84 277 1.0 10.0 0.00 0.01 0.01 52 1009.5
20260904191904 84 323 4.0 16.0 0.00 0.01 0.01 52 1009.6
20260904191404 85 325 3.0 12.0 0.00 0.01 0.01 53 1009.6
20260904190904 84 314 6.0 12.0 0.00 0.01 0.01 52 1009.7
20260904190404 84 275 7.0 12.0 0.00 0.01 0.01 52 1009.7
20260904185904 84 291 3.0 15.0 0.00 0.01 0.01 51 1009.8
20260904184404 81 298 2.0 12.0 0.00 0.01 0.01 57 1009.9
20260904183905 82 271 1.0 9.0 0.00 0.01 0.01 59 1009.9
20260904183404 82 288 3.0 12.0 0.00 0.01 0.01 55 1009.9
20260904182906 84 285 2.0 14.0 0.00 0.01 0.01 53 1009.9
20260904181905 84 272 5.0 13.0 0.00 0.01 0.01 54 1009.9
20260904181404 85 293 1.0 10.0 0.00 0.01 0.01 55 1009.9
20260904180905 84 324 1.0 13.0 0.00 0.01 0.01 57 1009.9
20260904180405 82 269 3.0 14.0 0.00 0.01 0.01 59 1009.8
20260904175906 81 296 2.0 8.0 0.00 0.01 0.01 56 1009.8
20260904175404 82 306 4.0 12.0 0.00 0.01 0.01 55 1009.7
20260904174904 84 294 5.0 14.0 0.00 0.01 0.01 51 1009.8
20260904173905 84 291 1.0 6.0 0.00 0.01 0.01 54 1009.8
20260904172905 84 297 3.0 16.0 0.00 0.01 0.01 54 1009.8
20260904172404 84 293 5.0 16.0 0.00 0.01 0.01 57 1009.7
20260904171904 84 298 5.0 12.0 0.00 0.01 0.01 57 1009.7
20260904171405 84 280 4.0 12.0 0.00 0.01 0.01 55 1009.8
20260904170905 83 310 5.0 13.0 0.00 0.01 0.01 54 1009.8
20260904170404 84 310 4.0 16.0 0.00 0.01 0.01 57 1009.9
20260904165904 84 305 5.0 17.0 0.00 0.01 0.01 59 1009.8
20260904165404 84 320 3.0 14.0 0.00 0.01 0.01 56 1009.9
20260904164905 84 346 3.0 16.0 0.00 0.01 0.01 56 1009.8
20260904164405 83 280 7.0 13.0 0.00 0.01 0.01 57 1009.8
20260904163905 83 303 6.0 18.0 0.00 0.01 0.01 56 1009.8
20260904163405 83 344 3.0 15.0 0.00 0.01 0.01 57 1009.7
20260904162905 83 318 7.0 15.0 0.00 0.01 0.01 57 1009.9
20260904162405 83 304 1.0 24.0 0.00 0.01 0.01 61 1009.9
20260904161906 82 302 3.0 13.0 0.00 0.01 0.01 61 1009.8
20260904161405 82 300 2.0 12.0 0.00 0.01 0.01 61 1010.0
20260904160905 82 319 5.0 14.0 0.00 0.01 0.01 60 1010.1
20260904155905 83 303 1.0 12.0 0.00 0.01 0.01 59 1010.2
20260904154905 82 313 6.0 15.0 0.00 0.01 0.01 60 1010.0
20260904154406 82 304 5.0 15.0 0.00 0.01 0.01 59 1010.1
20260904153904 82 274 3.0 12.0 0.00 0.01 0.01 62 1010.2
20260904153405 82 301 3.0 12.0 0.00 0.01 0.01 61 1010.2
20260904152905 82 299 2.0 12.0 0.00 0.01 0.01 61 1010.3
20260904151903 82 307 5.0 13.0 0.00 0.01 0.01 60 1010.4
20260904151403 82 286 7.0 14.0 0.00 0.01 0.01 60 1010.4
20260904150904 81 340 1.0 10.0 0.00 0.01 0.01 64 1010.4
20260904145904 81 277 3.0 12.0 0.00 0.01 0.01 62 1010.4
20260904144904 80 328 4.0 12.0 0.00 0.01 0.01 63 1010.3
20260904144403 80 312 1.0 13.0 0.00 0.01 0.01 64 1010.2
20260904143904 80 336 2.0 12.0 0.00 0.01 0.01 66 1010.2
20260904143405 79 287 2.0 14.0 0.00 0.01 0.01 65 1010.2
20260904142404 79 303 2.0 12.0 0.00 0.01 0.01 66 1010.3
20260904141904 79 314 4.0 12.0 0.00 0.01 0.01 69 1010.3
20260904141404 79 309 2.0 10.0 0.00 0.01 0.01 70 1010.3
20260904140904 79 317 3.0 10.0 0.00 0.01 0.01 70 1010.3
20260904140405 78 319 0.0 6.0 0.00 0.01 0.01 73 1010.2
20260904135904 78 324 1.0 5.0 0.00 0.01 0.01 75 1010.2
20260904135404 78 68 0.0 2.0 0.00 0.01 0.01 74 1010.2
20260904134903 78 317 1.0 6.0 0.00 0.01 0.01 75 1010.1
20260904134404 78 316 0.0 8.0 0.00 0.01 0.01 75 1010.1
20260904133905 77 322 1.0 6.0 0.00 0.01 0.01 75 1010.1
20260904133404 77 303 5.0 10.0 0.00 0.01 0.01 75 1010.1
20260904132904 77 285 1.0 6.0 0.00 0.01 0.01 76 1010.0
20260904131404 76 320 1.0 9.0 0.00 0.01 0.01 78 1010.1
20260904130404 76 308 1.0 7.0 0.00 0.01 0.01 78 1010.1
20260904125904 76 312 0.0 3.0 0.00 0.01 0.01 79 1010.1
20260904125404 76 312 1.0 12.0 0.00 0.01 0.01 80 1010.0
20260904124404 76 341 0.0 5.0 0.00 0.01 0.01 80 1010.1
20260904123904 75 338 0.0 5.0 0.00 0.01 0.01 82 1010.1
20260904123404 75 331 1.0 9.0 0.00 0.01 0.01 82 1010.2
20260904122905 75 319 3.0 12.0 0.00 0.01 0.01 82 1010.1
20260904121904 75 310 2.0 5.0 0.00 0.01 0.01 84 1010.0
20260904120404 75 333 0.0 2.0 0.00 0.01 0.01 85 1009.9
20260904115904 75 303 0.0 3.0 0.00 0.01 0.01 86 1009.9
20260904115405 75 308 1.0 5.0 0.00 0.01 0.01 87 1009.9
20260904114905 75 346 0.0 0.0 0.00 0.01 0.01 87 1010.0
20260904114404 74 306 0.0 0.0 0.00 0.01 0.01 89 1009.9
20260904113904 74 306 0.0 0.0 0.00 0.01 0.01 90 1009.9
20260904113404 74 307 0.0 0.0 0.00 0.01 0.01 89 1009.9
20260904112904 73 297 0.0 1.0 0.00 0.01 0.01 91 1009.7
20260904111905 72 293 0.0 1.0 0.00 0.01 0.01 92 1009.6
20260904111406 72 293 0.0 0.0 0.00 0.01 0.01 92 1009.6
20260904110904 72 285 0.0 0.0 0.00 0.01 0.01 92 1009.6
20260904110405 72 311 0.0 0.0 0.00 0.01 0.01 92 1009.7
20260904105405 72 294 0.0 0.0 0.00 0.01 0.01 93 1009.6
20260904104904 72 294 0.0 0.0 0.00 0.01 0.01 92 1009.6
20260904104405 72 294 0.0 0.0 0.00 0.01 0.01 92 1009.5
20260904103905 72 294 0.0 0.0 0.00 0.01 0.01 92 1009.6
20260904103405 72 294 0.0 0.0 0.00 0.01 0.01 92 1009.4
20260904102905 72 294 0.0 0.0 0.00 0.01 0.01 92 1009.4
20260904101904 72 294 0.0 0.0 0.00 0.01 0.01 92 1009.3
20260904101405 72 294 0.0 0.0 0.00 0.01 0.01 91 1009.2
20260904100905 72 298 0.0 0.0 0.00 0.01 0.01 92 1009.2
20260904100404 72 294 0.0 0.0 0.00 0.01 0.01 92 1009.2
20260904095905 72 297 0.0 0.0 0.00 0.01 0.01 92 1009.2
20260904094905 72 291 0.0 0.0 0.00 0.01 0.01 91 1009.0
20260904093905 72 291 0.0 0.0 0.00 0.01 0.01 91 1009.0
20260904093405 72 291 0.0 0.0 0.00 0.01 0.01 91 1008.9
20260904092403 73 291 0.0 0.0 0.00 0.01 0.01 91 1008.9
20260904091403 73 292 0.0 0.0 0.00 0.01 0.01 90 1008.8
20260904090903 73 292 0.0 0.0 0.00 0.01 0.01 90 1008.8
20260904090403 73 284 0.0 0.0 0.00 0.01 0.01 90 1008.8
20260904085904 73 284 0.0 0.0 0.00 0.01 0.01 90 1008.8
20260904085404 73 284 0.0 0.0 0.00 0.02 0.01 90 1009.1
20260904084903 73 279 0.0 0.0 0.00 0.02 0.01 90 1009.1
20260904084403 73 283 0.0 0.0 0.00 0.02 0.01 90 1009.1
20260904083904 73 283 0.0 0.0 0.00 0.02 0.01 89 1009.0
20260904083404 73 284 0.0 0.0 0.00 0.02 0.01 89 1009.1
20260904082903 73 283 0.0 0.0 0.00 0.02 0.01 89 1009.0
20260904082404 73 260 0.0 0.0 0.00 0.02 0.01 89 1009.0
20260904081903 73 277 0.0 0.0 0.00 0.03 0.01 89 1009.1
20260904081404 73 277 0.0 0.0 0.00 0.03 0.01 89 1009.1
20260904080403 73 275 0.0 0.0 0.00 0.03 0.01 89 1009.1
20260904075904 73 279 0.0 0.0 0.00 0.03 0.01 89 1009.0
20260904074904 73 281 0.0 0.0 0.00 0.03 0.01 89 1008.9
20260904074404 73 281 0.0 0.0 0.01 0.03 0.01 89 1008.7
20260904073904 72 281 0.0 0.0 0.01 0.03 0.01 89 1008.7
20260904073403 72 293 0.0 0.0 0.01 0.03 0.01 89 1008.6
20260904072904 72 294 0.0 0.0 0.01 0.04 0.01 88 1008.6
20260904072404 73 294 0.0 1.0 0.01 0.04 0.01 88 1008.5
20260904071904 73 326 0.0 1.0 0.01 0.04 0.01 88 1008.5
20260904070404 73 329 0.0 1.0 0.01 0.05 0.01 87 1008.2
20260904065905 73 300 0.0 1.0 0.01 0.05 0.01 86 1008.2
20260904065404 73 242 0.0 1.0 0.01 0.06 0.01 85 1007.9
20260904064904 74 205 1.0 6.0 0.01 0.06 0.01 84 1008.2
20260904064404 74 241 0.0 12.0 0.00 0.07 0.00 83 1008.7
20260904063904 75 250 7.0 16.0 0.00 0.08 0.00 82 1009.3
20260904063405 76 246 9.0 17.0 0.00 0.08 0.00 81 1009.3
20260904062404 78 263 10.0 20.0 0.00 0.09 0.00 81 1009.6
20260904061904 78 279 8.0 15.0 0.00 0.10 0.00 81 1009.5
20260904061405 77 228 0.0 3.0 0.00 0.10 0.00 81 1009.5
20260904060904 77 223 1.0 3.0 0.00 0.10 0.00 81 1009.4
20260904055904 77 254 0.0 2.0 0.00 0.10 0.00 81 1009.4
20260904054904 77 202 0.0 0.0 0.00 0.11 0.00 82 1009.4
20260904054404 77 203 0.0 0.0 0.00 0.11 0.00 81 1009.6
20260904053906 77 203 0.0 0.0 0.00 0.11 0.00 81 1009.7
20260904053404 77 202 0.0 0.0 0.00 0.12 0.00 80 1009.8
20260904052404 78 202 0.0 0.0 0.00 0.13 0.00 79 1009.8
20260904051904 78 202 0.0 0.0 0.00 0.14 0.00 79 1009.7
20260904050906 78 201 0.0 3.0 0.00 0.14 0.00 79 1009.5
20260904050404 78 199 0.0 2.0 0.00 0.15 0.00 78 1009.5
20260904045904 79 199 1.0 3.0 0.00 0.15 0.00 78 1009.5
20260904045404 79 200 1.0 3.0 0.00 0.16 0.00 78 1009.6
20260904044405 79 213 0.0 0.0 0.00 0.18 0.00 79 1009.8
20260904043404 79 226 0.0 2.0 0.00 0.19 0.00 78 1009.9
20260904042904 79 232 0.0 2.0 0.00 0.19 0.00 78 1010.0
20260904040904 79 253 0.0 0.0 0.00 0.19 0.00 78 1010.3
20260904040405 79 252 0.0 0.0 0.00 0.19 0.00 78 1010.3
20260904035904 79 253 0.0 0.0 0.00 0.19 0.19 78 1010.4
20260904035406 79 253 0.0 0.0 0.00 0.19 0.19 78 1010.3
20260904034904 79 254 0.0 0.0 0.00 0.19 0.19 77 1010.2
20260904034405 79 254 0.0 2.0 0.00 0.19 0.19 77 1010.2
20260904033405 79 237 0.0 2.0 0.00 0.19 0.19 77 1010.1
20260904032905 79 239 0.0 2.0 0.00 0.19 0.19 77 1010.2
20260904032403 79 247 0.0 0.0 0.00 0.19 0.19 76 1009.9
20260904031905 79 214 0.0 0.0 0.00 0.19 0.19 76 1009.8
20260904031404 79 216 0.0 0.0 0.00 0.19 0.19 76 1009.9
20260904030903 80 222 0.0 1.0 0.00 0.19 0.19 76 1010.1
20260904030404 80 221 0.0 1.0 0.00 0.19 0.19 75 1010.1
20260904025404 80 243 1.0 5.0 0.00 0.19 0.19 75 1010.3
20260904024904 80 241 0.0 1.0 0.00 0.19 0.19 75 1010.3
20260904024403 80 228 0.0 2.0 0.00 0.19 0.19 74 1010.4
20260904023904 80 227 0.0 1.0 0.00 0.19 0.19 74 1010.5
20260904022904 80 242 2.0 6.0 0.00 0.19 0.19 73 1010.7
20260904022404 80 246 1.0 2.0 0.00 0.19 0.19 73 1010.7
20260904021405 80 235 0.0 2.0 0.00 0.19 0.19 73 1010.9
20260904020904 81 242 2.0 7.0 0.00 0.19 0.19 73 1011.0
20260904015904 81 237 1.0 2.0 0.00 0.19 0.19 73 1011.1
20260904015404 81 234 4.0 8.0 0.00 0.19 0.19 73 1011.1
20260904014904 81 234 1.0 3.0 0.00 0.19 0.19 73 1011.1
20260904014405 81 237 2.0 8.0 0.00 0.19 0.19 73 1011.3
20260904013904 81 230 2.0 5.0 0.00 0.19 0.19 73 1011.3
20260904013404 80 234 0.0 0.0 0.00 0.19 0.19 73 1011.2
20260904012404 80 222 0.0 0.0 0.00 0.19 0.19 73 1010.9
20260904011904 80 233 0.0 0.0 0.00 0.19 0.19 73 1011.0
20260904011405 81 234 0.0 0.0 0.00 0.19 0.19 73 1011.0
20260904010904 81 233 0.0 0.0 0.00 0.19 0.19 73 1011.0
20260904010405 81 232 0.0 0.0 0.00 0.19 0.19 72 1010.8
20260904004904 81 226 0.0 0.0 0.00 0.19 0.19 73 1010.8
20260904003904 81 222 0.0 0.0 0.00 0.19 0.19 72 1010.6
20260904002404 81 238 0.0 5.0 0.00 0.19 0.19 72 1010.9
20260904001904 81 244 0.0 2.0 0.00 0.19 0.19 71 1010.9
20260904001404 81 264 0.0 1.0 0.00 0.19 0.19 71 1010.8
20260904000404 81 228 1.0 2.0 0.00 0.19 0.19 71 1010.6
20260903235406 82 220 0.0 1.0 0.00 0.19 0.19 70 1010.3
20260903234905 82 221 0.0 1.0 0.00 0.19 0.19 69 1010.3
20260903234405 82 220 0.0 1.0 0.00 0.19 0.19 69 1010.4
20260903233904 82 227 1.0 2.0 0.00 0.19 0.19 69 1010.5
20260903233404 82 217 0.0 2.0 0.00 0.19 0.19 69 1010.4
20260903232904 83 234 0.0 1.0 0.00 0.19 0.19 68 1010.2
20260903231905 83 234 0.0 1.0 0.00 0.19 0.19 67 1010.2
20260903231406 83 235 0.0 1.0 0.00 0.19 0.19 67 1010.3
20260903230905 83 242 0.0 1.0 0.00 0.19 0.19 67 1010.3
20260903230404 83 242 0.0 1.0 0.00 0.19 0.19 66 1010.3
20260903225905 84 241 1.0 2.0 0.00 0.19 0.19 66 1010.3
20260903225405 84 217 0.0 1.0 0.00 0.19 0.19 66 1010.4
20260903224906 84 217 0.0 1.0 0.00 0.19 0.19 65 1010.4
20260903224404 84 265 0.0 1.0 0.00 0.19 0.19 66 1010.4
20260903223905 83 271 0.0 1.0 0.00 0.19 0.19 67 1010.5
20260903223405 83 271 0.0 1.0 0.00 0.19 0.19 67 1010.6
20260903222905 84 238 0.0 0.0 0.00 0.19 0.19 67 1010.6
20260903222404 84 238 0.0 1.0 0.00 0.19 0.19 66 1010.6
20260903221905 84 237 1.0 7.0 0.00 0.19 0.19 65 1010.5
20260903220905 85 294 0.0 2.0 0.00 0.19 0.19 65 1010.6
20260903220405 85 263 1.0 3.0 0.00 0.19 0.19 64 1010.4
20260903215904 85 225 1.0 2.0 0.00 0.19 0.19 64 1010.4
20260903215405 85 271 1.0 2.0 0.00 0.19 0.19 65 1010.3
20260903214904 85 247 3.0 9.0 0.00 0.19 0.19 63 1010.3
20260903214404 85 266 1.0 3.0 0.00 0.19 0.19 64 1010.2
20260903213905 85 319 0.0 7.0 0.00 0.19 0.19 64 1010.3
20260903213405 86 269 2.0 9.0 0.00 0.19 0.19 63 1010.4
20260903212906 86 259 3.0 8.0 0.00 0.19 0.19 63 1010.3
20260903212405 86 275 1.0 9.0 0.00 0.19 0.19 64 1010.4
20260903211904 86 272 3.0 9.0 0.00 0.19 0.19 63 1010.4
20260903211404 86 283 3.0 9.0 0.00 0.19 0.19 63 1010.4
20260903210904 86 275 5.0 9.0 0.00 0.19 0.19 62 1010.4
20260903205904 86 264 1.0 12.0 0.00 0.19 0.19 64 1010.5
20260903205405 86 286 1.0 10.0 0.00 0.19 0.19 64 1010.5
20260903203903 86 305 2.0 13.0 0.00 0.19 0.19 63 1010.3
20260903203404 87 221 7.0 14.0 0.00 0.19 0.19 61 1010.5
20260903202904 86 261 1.0 8.0 0.00 0.19 0.19 63 1010.5
20260903202404 86 251 2.0 10.0 0.00 0.19 0.19 63 1010.4
20260903201905 85 275 2.0 10.0 0.00 0.19 0.19 64 1010.3
20260903201405 84 272 0.0 9.0 0.00 0.19 0.19 66 1010.5
20260903200904 84 271 6.0 10.0 0.00 0.19 0.19 64 1010.5
20260903200404 84 246 1.0 9.0 0.00 0.19 0.19 65 1010.6